SCP
0 0 0 0 0 0 0 0 0 0 0 0 0 0 0 0 0 0 0 0 0 0 0 0 0 0 0 0 0 0 0 0 0 0 0 0 0 0 0 0 0 0 0
0 0 0 0 0 0 0 0 0 0 0 0 0 0 0 0 0 0 0 0 0 0 0 0 0 0 0 0 0 0 0 0 0 0 0 0 0 0 0 0 0 0 0
0 0 0 0 0 0 0 0 0 0 0 0 0 0 0 0 0 0 0 0 0 0 0 0 0 0 0 0 0 0 0 0 0 0 0 0 0 0 0 0 0 0 0
0 0 0 0 0 0 0 0 0 0 0 0 0 0 0 0 0 0 0 0 0 0 0 0 0 0 0 0 0 0 0 0 0 0 0 0 0 0 0 0 0 0 0
0 0 0 0 0 0 0 0 0 0 0 0 0 0 0 0 0 0 0 0 0 0 0 0 0 0 0 0 0 0 0 0 0 0 0 0 0 0 0 0 0 0 0
0 0 0 0 0 0 0 0 0 0 0 0 0 0 0 1 0 0 0 0 0 0 0 0 0 0 0 0 0 0 0 0 0 0 0 0 0 0 0 0 0 0 0
0 0 0 0 0 0 0 0 0 0 0 0 0 0 0 1 0 0 0 0 0 0 0 0 0 0 0 0 0 0 0 0 0 0 0 0 0 0 0 0 0 0 0
0 0 0 0 0 0 0 0 0 0 0 0 0 0 0 0 0 0 0 0 0 0 0 0 0 0 0 0 0 0 0 0 0 0 0 0 0 0 0 0 0 0 0
0 0 0 0 0 0 0 0 0 0 0 0 0 0 0 0 0 0 0 0 0 0 0 0 0 0 0 0 0 0 0 0 0 0 0 0 0 0 0 0 0 0 0
0 0 0 0 0 0 0 0 0 0 0 0 0 0 0 0 0 0 0 0 0 0 0 0 0 0 0 0 0 0 0 0 0 0 0 0 0 0 0 0 0 0 0
0 0 0 0 0 0 0 0 0 0 0 0 0 0 0 0 0 0 0 0 0 0 0 0 0 1 1 0 0 0 0 0 0 0 0 0 0 0 0 0 0 0 0
0 0 0 0 0 0 0 0 0 0 0 0 0 0 0 0 0 0 0 0 0 0 0 0 1 1 1 1 0 0 0 0 0 0 0 0 0 0 0 0 0 0 0
0 0 0 0 0 0 0 0 1 1 1 0 0 0 0 0 0 0 0 0 0 0 0 0 1 1 1 1 1 0 0 0 0 0 0 0 0 0 0 0 0 0 0
0 0 1 1 1 1 1 1 1 1 1 1 1 1 1 1 1 1 1 1 0 0 0 1 1 1 1 1 1 0 0 0 0 0 0 0 0 0 0 0 0 0 0
0 0 1 1 1 1 1 1 1 1 1 1 1 1 1 1 1 1 1 1 1 1 1 1 1 1 1 0 0 0 0 0 0 0 0 0 0 0 0 0 0 0 0
0 1 1 1 1 1 1 1 1 1 1 1 1 1 1 1 1 1 1 1 1 1 1 1 1 1 1 0 0 0 1 0 0 0 0 0 0 0 0 0 0 0 0
1 1 1 1 1 1 1 1 1 1 1 1 1 1 1 1 1 1 1 1 1 1 1 1 1 1 1 0 0 0 0 0 0 0 0 0 0 0 0 0 0 0 0
1 1 1 1 1 1 1 1 1 1 1 1 1 1 1 1 1 1 1 1 1 1 1 1 1 1 1 1 1 0 0 0 0 0 0 0 0 0 0 0 0 0 0
1 1 1 1 1 1 1 1 1 1 1 1 1 1 1 1 1 1 1 1 1 1 1 1 1 1 1 1 1 0 0 0 0 0 0 0 0 0 0 0 0 0 0
1 1 1 1 1 1 1 1 1 1 1 1 1 1 1 1 1 1 1 1 1 1 1 1 1 1 1 1 1 0 0 0 0 0 0 0 0 0 0 0 0 0 0
1 1 1 1 1 1 1 1 1 1 1 1 1 1 1 1 1 1 1 1 1 1 1 1 1 1 0 0 0 0 0 0 0 0 0 0 0 0 0 0 0 0 0
2 2 2 2 1 1 1 1 1 1 1 1 1 1 1 1 1 1 1 1 1 1 1 1 0 0 0 0 0 0 0 0 0 0 0 0 0 0 0 0 0 0 0
2 2 2 2 1 1 1 0 0 1 1 1 1 1 1 1 1 1 1 0 0 0 0 0 0 0 0 0 0 0 0 0 0 0 0 0 0 0 0 0 0 0 0
2 2 2 2 2 1 1 0 0 1 1 1 1 1 1 1 1 1 1 1 0 0 0 0 0 0 0 0 0 0 0 0 0 0 0 0 0 0 0 0 0 0 0
2 2 2 2 2 1 1 1 0 1 1 1 1 1 1 1 0 0 0 1 0 0 0 0 0 0 0 0 0 0 0 0 0 0 0 0 0 0 0 0 0 0 0
2 2 2 2 2 1 1 1 0 1 1 1 1 1 0 0 0 0 0 0 0 0 0 0 0 0 0 0 0 0 0 0 0 0 0 0 0 0 0 0 0 0 0
Wind_Speed
2 2 1 0 1 1 2 1 0 0 1 0 1 1 2 3 3 4 4 8 8 8 8 7 7 6 6 6 5 5 5 5 5 4 4 5 5 6 6 5 5 5 5
2 2 1 1 1 1 0 1 1 1 0 1 2 2 2 2 3 4 5 6 7 7 7 6 6 6 6 6 5 5 5 5 5 4 4 5 4 5 6 6 5 5 5
2 1 1 1 1 1 1 1 0 0 1 1 1 2 1 1 2 3 4 4 5 6 7 7 6 5 6 6 5 5 5 5 5 4 4 4 4 4 5 5 5 5 5
1 1 1 0 0 1 0 0 1 1 0 0 0 1 1 2 2 2 3 3 3 4 6 7 7 6 6 6 6 6 5 5 5 5 4 4 5 5 5 5 5 5 5
1 0 1 1 1 1 0 1 1 1 0 0 1 1 2 2 2 2 3 4 4 5 4 6 7 6 6 7 6 6 6 5 5 5 5 4 4 4 5 5 4 4 5
1 1 1 1 1 0 1 1 1 1 1 1 1 1 2 3 3 2 3 3 3 5 6 5 5 5 7 7 7 6 6 6 6 6 5 5 5 4 4 4 4 4 4
1 1 1 1 0 0 0 1 1 2 1 1 1 1 1 2 2 3 2 2 3 3 5 6 5 4 4 7 7 6 6 6 6 6 5 5 5 5 4 5 4 4 4
0 1 1 1 0 0 0 1 1 2 2 1 1 1 1 0 1 3 3 2 3 3 4 6 5 5 4 4 5 7 6 6 6 6 5 5 5 5 4 5 5 5 5
1 0 1 1 0 0 0 1 1 2 2 2 1 0 0 0 1 0 1 2 2 2 2 3 5 5 5 4 4 6 7 6 6 6 5 5 5 5 5 5 5 5 4
1 1 1 0 1 1 0 1 1 2 2 2 2 1 0 0 0 1 0 1 2 3 2 2 3 4 4 4 5 7 8 6 6 6 5 5 5 5 5 5 5 5 5
2 1 1 1 0 0 0 1 1 1 1 2 2 1 1 0 1 1 1 1 1 2 3 3 3 3 4 4 4 7 9 8 7 6 6 5 5 6 6 6 6 6 6
2 2 2 2 1 1 1 1 1 1 1 2 3 2 2 1 1 1 1 1 1 1 2 2 2 3 3 3 5 9 10 9 8 7 6 6 5 5 5 6 6 6 6
2 2 2 2 2 1 1 1 1 1 1 2 2 2 2 2 1 1 1 1 1 1 1 2 2 2 3 4 4 10 10 10 9 8 7 6 6 5 5 5 6 6 6
2 3 3 2 2 2 2 1 2 2 1 2 3 2 3 2 2 1 1 1 1 1 1 2 2 2 3 3 5 9 7 10 9 9 8 7 6 5 5 5 5 5 6
2 3 3 3 3 2 2 2 1 2 2 2 3 2 3 3 2 2 2 1 1 2 2 2 1 2 2 3 6 5 5 9 10 9 9 8 7 6 6 5 5 5 5
1 1 2 3 2 2 2 2 2 2 2 2 2 2 2 3 2 2 2 2 1 1 2 2 1 1 1 2 5 4 4 8 10 10 10 9 8 8 7 7 6 5 5
2 2 2 2 2 3 2 2 3 2 3 3 3 2 2 2 2 2 2 2 1 1 2 2 1 1 1 1 2 3 4 4 5 11 11 10 9 9 8 8 7 6 6
3 3 3 3 3 3 3 3 4 3 3 3 3 2 3 2 2 2 2 3 2 2 2 3 2 2 2 3 3 4 4 5 4 9 12 11 10 10 9 9 8 8 7
3 3 3 3 3 3 3 3 3 3 3 3 3 3 3 2 2 2 2 3 3 3 2 2 3 2 2 2 2 3 4 3 4 6 11 12 12 11 11 10 10 8 7
4 3 3 3 3 2 2 3 3 3 3 3 3 4 3 3 2 3 3 3 3 3 2 2 2 2 2 2 1 2 2 2 3 4 4 7 9 12 11 11 10 9 8
4 3 3 3 3 3 3 3 4 4 3 4 4 4 3 2 2 3 3 2 2 2 3 3 2 2 2 1 2 2 2 2 3 3 2 3 4 5 6 9 10 10 10
3 3 4 3 3 3 2 2 2 3 3 4 4 3 3 3 2 2 2 2 2 3 3 3 3 2 3 3 2 2 2 2 3 2 1 3 3 4 4 5 9 12 11
4 3 3 3 3 2 2 1 3 4 4 4 4 3 4 3 1 1 2 3 3 4 4 3 4 4 3 3 2 3 3 3 4 3 2 3 3 3 3 4 9 12 12
3 3 3 3 3 3 3 3 3 4 4 3 3 3 3 2 2 1 2 2 2 3 4 3 3 4 3 2 3 3 4 4 4 3 2 3 3 3 3 2 7 11 12
2 3 3 3 3 2 3 3 3 4 3 4 3 2 2 1 1 1 1 2 3 3 4 4 4 4 4 4 3 2 3 3 4 3 2 2 2 2 2 2 4 9 10
3 3 3 3 4 4 5 5 5 3 3 2 2 2 1 1 1 1 2 2 4 4 3 3 3 5 5 5 5 4 3 3 3 3 2 2 2 1 2 2 2 3 5
Wind_Direction
123 110 94 110 183 165 172 201 212 312 326 339 6 76 87 94 105 108 123 143 142 144 147 151 160 167 170 175 175 178 180 178 174 175 183 187 189 190 189 186 187 182 176
99 109 141 210 234 208 187 163 153 216 262 53 38 47 56 92 103 113 131 147 148 148 150 155 162 168 170 172 175 177 177 172 171 177 182 184 185 186 185 189 184 182 178
120 128 147 203 220 257 223 171 224 255 186 141 164 160 124 100 114 127 135 147 156 160 159 160 164 166 168 169 171 172 168 167 168 172 177 179 182 179 177 181 181 177 179
155 159 159 124 138 270 283 212 209 247 72 88 204 180 151 143 142 152 151 155 164 162 167 169 166 163 165 165 163 164 164 166 168 169 175 180 183 181 178 179 182 182 183
135 133 109 125 226 216 310 309 29 334 322 255 219 190 166 172 176 179 173 170 167 161 155 165 168 171 173 169 167 167 169 169 169 173 178 182 182 178 180 182 183 185 188
97 50 166 155 266 88 33 356 336 292 254 260 271 204 194 188 182 180 191 164 161 167 154 150 163 178 179 172 167 170 177 178 179 180 183 187 186 185 183 181 182 189 193
97 95 14 142 171 105 79 318 300 287 268 233 255 264 235 210 178 170 180 166 153 157 147 154 167 164 168 176 176 174 181 187 185 182 183 187 189 185 186 184 187 192 194
86 145 104 292 122 131 95 307 299 297 301 290 251 282 281 240 242 183 165 169 165 165 160 162 163 161 165 158 173 179 184 188 190 189 186 182 183 183 189 194 196 199 203
123 45 109 308 329 218 177 240 298 299 294 302 309 276 306 319 316 291 176 143 152 159 161 159 164 163 167 153 161 176 181 186 188 190 190 187 183 188 196 204 205 203 206
171 159 147 174 321 356 11 279 90 300 301 306 308 294 249 148 149 313 296 186 188 178 175 181 157 155 150 150 151 156 167 177 183 188 194 198 197 197 201 209 214 213 216
165 163 170 186 229 330 344 323 4 324 325 318 312 312 310 266 240 198 262 255 231 196 181 176 168 157 156 156 156 164 171 178 180 184 191 199 204 207 209 212 219 223 223
165 180 179 194 200 208 241 246 274 274 297 314 320 321 316 335 306 269 255 251 233 225 185 165 169 154 154 158 163 160 170 177 181 186 191 197 203 211 215 218 222 225 225
166 183 182 177 186 205 228 236 228 250 259 283 293 300 308 298 293 290 287 283 281 274 218 194 172 160 168 153 155 164 172 178 183 186 192 198 204 210 215 224 228 228 231
176 168 168 179 192 216 235 228 245 245 242 267 274 284 288 293 306 292 267 282 291 279 258 228 169 172 158 150 164 171 171 182 185 188 193 197 204 211 215 220 227 231 231
203 169 173 183 191 203 232 242 237 267 260 262 276 281 285 291 296 305 299 278 257 277 268 251 219 169 156 142 163 174 168 183 187 192 197 201 207 211 213 217 222 227 226
241 187 187 188 196 209 221 243 238 249 254 251 254 269 284 296 307 296 283 282 260 245 268 261 259 195 171 180 173 178 174 180 190 196 200 204 207 211 211 214 217 221 221
211 216 209 208 212 217 218 234 243 241 251 258 264 257 260 275 298 303 302 290 287 263 255 270 251 212 187 206 173 195 183 188 195 199 200 202 207 211 210 212 216 220 223
210 210 211 218 228 223 225 233 251 248 249 257 263 275 273 268 280 292 297 292 282 267 257 266 263 237 235 222 205 213 217 213 205 203 199 202 207 210 212 211 214 217 220
206 211 212 222 232 234 232 236 239 247 253 259 262 263 265 272 273 277 282 289 286 283 260 260 263 250 244 243 226 236 240 233 238 208 198 203 207 210 213 212 215 214 216
206 209 220 221 226 231 246 254 250 246 253 259 263 259 257 249 258 274 273 282 292 293 280 272 268 263 260 248 219 238 256 245 251 243 208 199 206 211 216 215 213 210 211
215 207 219 231 229 222 239 250 259 253 251 256 259 259 256 254 269 272 282 305 304 299 298 291 280 285 285 281 262 255 261 260 251 239 219 217 205 212 214 217 213 212 211
219 215 216 222 230 243 230 229 257 272 268 265 269 271 261 237 240 243 275 277 274 280 293 296 295 289 292 299 293 279 278 276 272 247 217 242 211 217 213 204 202 205 208
215 220 216 215 209 216 237 245 263 268 268 264 263 266 278 275 208 240 253 254 264 263 254 269 282 282 282 287 299 291 273 267 268 276 254 255 237 230 225 211 196 199 204
213 221 226 220 208 210 207 216 250 250 260 264 260 249 247 276 270 269 263 273 266 265 252 242 252 264 273 284 269 261 262 262 255 262 241 252 256 247 248 214 202 202 204
223 227 228 225 216 206 207 203 218 245 247 249 245 248 232 230 278 301 261 286 297 286 268 256 252 262 266 274 272 278 272 264 268 263 242 243 253 266 249 231 218 207 208
226 233 233 227 220 207 200 202 205 251 265 261 238 219 196 199 224 237 245 262 269 277 285 284 271 262 255 255 242 231 253 266 273 275 252 249 268 277 272 239 206 199 209